Wind_Speed
9 8 7 6 6 6 5 5 5 4 4 4 4 3 4 4 4 5 5 6 6 6 6 6 6 7 7 7 8 8 8 9 9 8 7 8 8 8 8 8 7 8 7 8 8 8 8 8 8 8 8 7 7 6 6 6 6 6 5 4 4 4 4 4 5 7 8 8 8 10 13 13 12 13 15 13 12 12 10 8 11 12 11 13 14 15 15 16
9 8 7 7 6 6 6 6 6 5 5 5 5 5 5 6 6 6 7 7 8 8 8 8 8 8 8 8 9 9 9 10 9 9 8 8 8 7 7 6 6 7 9 10 10 9 8 8 8 8 7 6 6 6 6 7 7 7 6 5 4 4 3 4 6 8 9 8 8 9 11 12 12 13 14 14 12 11 10 7 8 8 6 9 12 13 14 15
9 9 8 8 7 7 7 7 7 7 7 7 7 7 7 7 8 8 8 9 9 9 9 9 9 9 9 9 10 10 10 10 10 10 9 8 6 5 6 7 8 9 10 10 10 8 7 6 6 6 6 6 6 6 8 8 8 7 6 5 5 4 4 5 7 8 9 10 10 10 12 12 11 13 13 14 13 9 9 9 7 5 4 7 10 11 11 12
10 10 9 9 9 9 9 9 9 9 9 9 9 9 9 10 10 10 10 11 11 11 11 11 11 11 11 11 11 10 10 10 10 9 8 6 6 7 8 9 9 10 10 9 8 7 6 5 5 5 6 6 7 7 9 9 9 8 7 7 7 7 5 6 8 8 10 12 12 12 13 12 12 13 12 14 14 8 7 8 7 7 7 8 9 10 11 12
12 11 11 11 11 11 11 11 11 11 11 11 11 11 11 12 12 12 12 12 13 13 12 12 12 12 12 12 12 10 10 10 9 8 7 7 8 9 8 9 9 8 8 8 7 7 7 6 6 7 7 8 8 8 10 11 11 10 9 9 10 10 7 6 9 10 11 12 12 12 13 13 12 11 11 13 13 10 8 6 6 9 9 9 9 11 11 12
13 13 12 12 12 13 13 13 12 13 13 12 13 13 13 14 14 14 14 14 14 14 14 14 14 14 13 13 12 11 9 8 8 8 8 9 9 9 8 8 8 8 8 8 9 9 9 8 8 9 10 10 10 10 11 13 13 13 12 11 12 12 10 9 11 11 11 11 11 12 13 12 11 11 10 11 11 10 9 6 9 9 8 10 11 12 13 13
15 14 14 14 14 14 14 14 14 14 15 15 15 15 15 15 15 15 15 16 16 16 16 15 15 15 15 13 12 11 8 7 10 10 9 9 9 10 10 9 10 10 10 10 11 11 10 10 10 11 11 11 12 12 14 15 15 16 14 12 12 13 13 12 12 10 11 12 11 13 13 10 11 13 9 8 10 9 7 8 13 12 10 10 11 13 15 15
16 16 16 16 16 16 16 16 16 16 16 17 17 17 17 17 17 17 17 17 18 18 17 16 15 15 15 14 13 12 8 9 12 11 10 10 11 11 11 12 13 12 12 12 12 12 12 11 12 12 12 13 14 14 15 16 16 17 15 14 14 14 13 13 13 11 11 12 12 14 13 9 11 15 10 6 8 7 7 11 16 15 14 13 12 13 15 17
18 18 18 17 17 17 18 18 18 18 19 19 19 19 19 19 19 19 19 19 19 20 18 17 16 16 16 15 14 13 10 11 13 12 12 12 12 13 14 14 14 14 14 13 13 13 13 13 14 14 14 15 15 15 15 16 16 17 17 17 16 15 14 14 14 12 12 13 13 15 13 10 12 15 10 6 8 8 10 16 18 18 17 16 14 13 14 17
20 20 20 19 19 19 19 20 20 20 20 21 21 20 20 20 20 20 20 20 20 20 19 18 17 17 16 16 16 14 11 13 13 13 14 14 14 15 15 15 15 15 15 15 15 15 15 15 16 16 16 17 17 16 15 16 17 18 19 19 17 15 16 15 14 11 12 14 13 14 14 11 13 14 9 7 11 12 14 19 20 19 18 16 15 14 14 15
22 21 22 21 21 21 21 21 21 22 22 22 22 22 22 22 22 21 21 21 21 20 19 19 18 18 18 18 18 15 13 15 15 15 15 15 15 16 16 16 16 16 17 17 17 17 17 17 17 18 17 18 17 16 17 17 18 19 19 19 17 18 18 15 13 12 13 13 12 14 16 14 14 13 9 10 15 17 18 21 21 20 18 16 15 15 15 16
23 23 23 23 23 22 23 23 23 23 23 23 23 23 23 22 22 22 21 21 21 21 20 20 20 20 20 20 18 16 16 16 16 16 16 16 16 17 18 18 18 19 19 19 19 19 19 19 19 18 18 18 18 17 18 18 19 19 20 21 20 20 19 13 12 14 14 13 14 15 16 16 14 11 11 15 19 19 20 22 21 20 18 17 17 17 17 18
24 24 24 23 24 23 24 24 24 24 24 24 24 23 23 23 22 22 22 22 21 21 21 21 21 21 22 21 19 18 18 18 18 18 18 18 19 19 20 20 21 21 21 21 21 20 20 20 19 18 18 19 19 19 19 20 20 21 21 23 22 21 18 13 12 15 16 16 16 15 15 17 16 14 16 19 20 20 21 22 21 19 19 18 19 19 19 20
25 24 25 25 25 25 25 24 24 24 24 24 24 24 23 23 23 22 22 22 22 22 22 22 22 23 24 23 21 20 20 20 21 20 20 21 21 22 22 22 23 22 22 21 20 20 20 19 18 18 19 19 20 21 21 21 20 20 21 22 21 20 18 15 17 19 18 16 16 16 18 20 19 17 17 18 20 20 20 21 19 18 19 20 21 22 22 23
26 26 26 26 26 26 26 25 25 25 24 24 24 24 24 23 23 23 23 23 23 23 23 24 24 25 26 25 24 24 23 23 23 23 23 23 22 22 21 22 22 21 21 20 20 20 20 20 19 19 20 20 20 21 21 20 19 20 21 20 19 20 20 20 20 19 16 15 16 17 18 21 21 18 16 17 21 20 18 18 18 17 19 21 23 24 25 25
28 27 27 27 26 26 26 26 25 25 25 25 25 25 25 25 25 25 25 25 25 25 25 26 26 27 28 26 25 25 24 23 23 23 22 22 22 21 21 22 22 22 22 22 22 21 21 21 20 20 19 19 19 20 20 20 20 21 20 20 19 20 23 23 21 20 17 16 16 16 17 21 22 20 16 17 19 17 15 16 17 19 21 23 24 25 26 26
28 28 28 27 27 27 27 26 26 26 26 26 26 26 26 26 26 26 27 26 27 27 27 28 28 29 29 26 26 25 24 24 24 24 23 23 23 22 21 20 19 20 20 20 21 21 20 19 19 18 17 18 20 19 19 19 20 20 19 20 20 21 23 24 23 21 19 16 14 17 21 24 24 20 15 14 15 12 14 17 19 21 23 24 23 22 23 23
29 28 28 27 27 27 27 27 27 27 27 27 27 27 28 28 28 28 28 28 28 28 28 28 28 29 28 25 25 24 23 24 23 22 21 21 20 19 19 18 18 19 20 21 22 20 19 19 18 18 19 22 22 21 21 21 21 20 20 21 22 23 24 25 23 21 21 20 19 21 24 25 24 20 13 11 11 12 15 20 21 23 23 19 18 19 20 19
29 28 28 28 28 28 28 28 28 28 28 28 28 28 29 28 29 29 28 28 28 28 27 26 26 27 26 24 23 23 23 22 22 21 21 21 22 22 22 22 23 23 23 23 22 21 21 21 22 23 26 27 24 23 23 22 21 20 21 23 24 25 26 26 24 22 23 24 24 24 24 24 20 14 10 11 13 15 18 21 22 22 18 14 13 17 18 15
30 29 29 29 29 29 29 29 29 29 29 29 28 28 28 28 28 28 28 29 28 27 27 27 27 27 26 26 26 25 25 25 25 24 24 25 25 25 26 26 26 25 25 24 23 23 25 25 27 29 28 26 22 21 20 19 19 21 22 23 25 27 28 25 23 22 21 24 25 23 21 20 15 11 12 15 17 18 19 20 20 18 13 11 13 16 17 15
31 31 31 30 30 30 30 30 30 29 29 28 28 27 27 26 27 28 28 28 27 27 28 28 28 28 27 27 26 26 26 26 26 26 26 27 27 27 28 28 27 27 27 26 25 27 28 29 31 29 25 22 19 18 19 20 21 22 23 24 26 28 28 25 22 21 20 22 21 18 18 17 13 15 18 20 21 19 17 16 15 13 12 13 14 16 17 15
32 32 31 31 31 30 31 30 29 29 28 27 27 26 25 25 27 27 29 30 29 28 28 28 29 30 28 27 27 26 28 28 28 29 28 29 30 30 31 30 29 29 28 27 27 28 28 30 29 23 19 18 18 19 21 22 24 24 24 25 26 27 26 23 19 17 15 16 16 17 20 17 16 20 22 22 20 14 11 12 12 13 15 16 16 16 16 16
33 32 32 31 31 31 31 30 29 28 27 26 25 25 24 25 26 26 28 31 32 30 29 30 31 31 29 29 29 29 31 31 30 31 30 31 32 32 33 32 31 30 29 29 29 29 28 28 24 17 16 17 18 19 21 23 25 25 25 25 26 25 22 19 16 14 13 16 18 21 23 21 20 21 21 18 12 9 12 15 16 18 20 20 17 16 17 18
33 32 32 32 31 31 30 29 28 27 26 26 24 24 24 25 26 26 28 32 35 34 31 31 32 33 31 30 31 31 32 32 32 32 32 32 33 33 34 32 30 30 30 30 29 30 30 28 25 22 20 20 20 20 22 24 25 24 24 25 26 24 20 19 17 15 16 19 19 21 22 20 18 15 13 9 8 11 17 18 18 21 23 22 19 17 18 19
33 32 32 32 31 31 30 29 28 27 27 25 24 25 25 26 26 27 28 31 37 37 33 32 33 32 32 31 31 32 33 34 33 32 32 33 33 32 32 30 29 30 29 28 28 29 30 27 25 23 21 21 21 22 23 23 23 23 24 24 23 21 18 17 15 15 17 16 15 14 11 8 6 5 7 9 13 19 19 17 20 23 23 21 19 19 19 18
32 32 32 32 31 31 30 29 28 28 27 25 25 25 25 26 25 25 26 27 36 39 34 32 30 28 29 29 29 30 32 34 34 32 32 32 33 31 30 29 29 28 26 25 24 26 28 25 23 22 21 21 22 23 23 21 21 22 22 19 16 14 13 13 12 13 13 11 11 11 9 8 8 10 14 18 21 20 18 18 23 26 23 20 19 19 18 17
33 32 32 32 32 31 30 30 29 28 27 24 25 25 25 25 24 23 21 18 25 31 27 25 25 24 23 23 26 28 28 27 27 29 32 31 32 31 29 29 29 26 25 23 22 23 23 20 18 20 20 22 24 24 21 19 20 21 19 15 11 10 10 11 13 14 14 16 16 15 17 18 16 17 19 19 19 18 19 22 26 26 23 21 20 18 17 16
34 33 34 33 33 32 31 31 30 28 27 26 26 25 25 24 22 21 14 7 10 14 13 15 16 18 19 19 22 26 27 24 19 20 24 25 27 28 27 28 27 25 22 22 24 22 18 14 13 16 18 21 22 19 16 16 19 19 17 13 11 11 12 13 14 14 17 18 14 15 19 15 12 14 10 11 16 16 19 24 26 24 21 20 19 17 16 15
36 36 35 34 34 34 34 34 32 29 28 28 27 27 26 24 22 18 10 6 9 9 9 11 12 13 15 16 18 21 25 24 20 17 16 17 19 21 22 22 22 23 22 23 23 20 17 14 12 13 16 17 15 13 13 14 15 16 15 14 13 14 15 15 15 16 18 15 11 15 20 13 9 10 9 12 16 16 20 23 22 19 17 15 15 15 14 14
38 38 37 36 38 37 37 37 33 31 31 30 29 29 27 25 22 14 9 11 12 9 10 12 14 15 14 16 18 19 20 20 21 19 17 16 16 17 18 17 17 19 20 21 21 20 19 17 14 13 13 13 12 13 14 14 15 16 15 15 15 17 18 17 18 18 14 9 8 12 16 14 6 4 7 12 14 14 15 14 10 8 9 10 12 12 13 14
41 41 39 40 41 40 41 40 35 32 33 32 31 31 29 27 24 15 11 18 17 12 14 15 15 18 18 18 19 18 19 19 20 20 19 19 18 17 18 17 16 16 18 21 20 18 19 18 17 15 13 13 13 14 15 15 17 17 16 17 15 13 13 14 15 12 7 4 5 7 10 14 11 6 6 9 11 13 10 5 4 4 5 8 10 12 14 15
43 43 42 43 43 42 43 40 35 33 34 35 33 33 31 26 25 24 18 17 13 11 18 19 18 20 21 21 21 19 20 20 20 21 20 19 19 19 18 16 16 14 15 19 18 16 17 18 17 16 15 15 15 16 17 18 19 19 19 18 12 5 5 6 5 4 5 7 8 7 6 11 17 16 12 10 11 13 10 6 6 5 5 7 9 12 15 17
43 44 44 44 43 42 41 37 33 31 32 32 30 32 34 23 22 33 32 22 12 8 13 19 21 23 23 24 24 22 21 21 21 20 20 20 20 19 17 17 18 17 13 13 14 15 13 14 18 20 19 19 20 21 20 19 19 20 21 20 12 3 1 3 3 2 6 7 7 8 6 8 13 16 17 19 17 16 15 13 10 8 8 9 12 14 16 19
40 42 43 42 41 40 37 33 31 31 29 29 28 31 33 22 16 25 33 33 26 16 11 13 18 22 24 25 24 23 23 22 22 21 21 22 22 21 21 20 20 20 17 12 11 13 11 10 13 17 18 18 20 22 21 20 18 17 20 20 17 12 7 5 3 2 3 3 3 6 5 5 7 7 10 14 15 18 20 18 15 13 13 14 17 18 19 21
38 38 39 39 40 40 38 34 32 32 30 31 31 32 35 30 18 15 25 33 33 29 20 14 16 20 24 26 25 25 24 22 22 23 23 23 24 23 23 23 23 22 21 16 12 13 13 13 14 15 15 15 15 17 20 22 19 16 18 20 21 21 18 11 6 7 6 5 4 8 9 12 14 13 11 9 10 15 17 18 17 16 18 20 20 19 19 20
37 37 37 38 39 38 37 37 35 34 34 35 35 38 44 41 28 17 20 26 29 31 27 21 19 21 24 26 28 27 25 23 23 23 24 24 25 26 25 23 24 24 23 21 16 13 13 13 14 15 16 17 16 16 19 23 21 17 18 21 22 21 19 14 10 10 7 5 7 9 12 18 20 20 19 16 14 15 15 17 17 17 20 20 18 18 18 20
36 37 37 36 33 31 31 34 34 34 36 37 37 41 46 46 38 25 17 20 24 26 28 25 23 23 24 26 29 29 27 25 24 23 24 23 22 25 28 26 26 25 24 23 21 19 17 15 15 15 15 17 18 18 20 24 23 21 20 21 19 15 15 13 6 4 2 3 6 9 13 17 16 15 17 15 13 13 13 13 14 16 17 18 18 18 19 21
36 36 38 35 33 32 32 33 34 34 36 39 41 43 44 45 45 34 21 17 19 22 27 28 25 24 25 26 28 29 29 28 26 24 25 24 20 20 22 25 27 27 26 25 23 23 22 19 18 18 18 18 20 21 21 23 25 26 24 20 16 12 10 12 8 3 2 2 4 7 13 17 19 18 16 12 11 11 11 13 15 17 19 19 20 20 20 22
36 36 38 37 36 37 36 35 35 36 37 42 44 45 46 45 44 40 32 25 21 21 25 28 27 25 26 26 27 28 30 30 29 27 26 25 23 20 19 20 23 25 27 28 28 27 25 19 15 16 20 21 23 25 27 27 26 27 25 22 20 15 11 13 13 7 4 3 4 6 8 13 17 16 12 10 11 13 13 14 16 17 19 19 19 20 22 24
34 37 39 37 37 37 35 34 36 36 38 44 45 44 44 41 37 37 38 36 31 27 26 26 28 28 27 26 26 26 28 29 29 29 28 26 24 22 20 20 21 22 23 26 29 30 27 23 18 16 19 22 24 26 28 28 26 26 27 24 23 22 18 15 16 15 10 3 2 2 6 15 17 12 8 10 14 16 14 14 15 16 17 18 19 22 24 25
32 36 37 36 35 34 34 35 37 39 41 43 42 40 39 37 34 35 37 39 37 33 30 27 27 29 29 27 26 26 25 26 27 28 29 30 27 24 22 21 22 23 23 24 27 28 26 26 24 20 20 23 25 25 25 24 24 26 27 27 27 28 24 13 9 18 20 12 9 5 6 20 24 15 11 12 14 15 15 16 17 16 18 20 22 24 25 26
30 32 33 33 32 31 34 39 40 40 42 42 41 39 39 37 35 33 34 37 38 37 35 32 30 30 29 29 28 27 25 25 27 29 30 31 30 28 26 24 21 23 25 25 26 27 26 25 24 23 23 22 22 22 23 23 24 25 26 28 29 30 30 21 12 16 19 17 19 12 7 22 31 25 21 19 17 17 17 18 18 19 20 21 23 24 24 24
28 29 29 30 30 29 34 40 41 41 43 43 41 40 39 37 35 34 33 35 37 37 37 37 36 34 33 32 30 29 28 27 28 31 31 30 30 30 30 28 24 22 23 25 24 25 25 24 24 23 20 19 21 23 24 24 26 29 31 33 34 33 33 31 26 22 15 16 18 9 5 21 30 28 27 22 16 16 17 17 18 20 22 23 24 25 25 26
29 30 29 30 30 31 36 41 41 43 44 43 42 40 39 39 38 37 36 35 35 37 38 39 39 38 37 36 34 32 30 28 27 29 29 29 29 30 30 30 29 26 25 25 24 25 25 25 24 18 10 10 13 16 21 26 29 32 34 35 36 36 33 30 29 24 17 20 22 10 9 23 28 25 26 22 18 19 20 20 22 23 25 26 27 27 28 30
32 33 33 34 34 35 40 42 42 43 42 41 42 42 43 43 42 41 38 35 35 36 37 38 40 41 40 38 37 34 32 29 26 23 24 27 28 27 28 30 31 32 30 27 26 26 25 25 25 19 10 8 9 11 18 27 31 33 35 35 35 36 33 29 27 22 17 19 22 19 21 29 31 28 27 25 26 27 26 26 27 26 26 28 29 31 33 36
33 34 35 36 37 38 41 41 42 42 41 41 42 43 44 44 43 43 40 37 35 35 36 37 38 37 36 36 35 33 31 29 25 22 23 26 26 26 26 27 30 33 34 34 32 29 26 27 29 29 27 25 26 25 24 25 26 30 33 34 35 35 34 33 29 26 23 19 21 31 34 31 33 34 31 30 31 30 29 29 28 28 29 31 34 37 40 43
32 34 34 35 35 37 41 43 43 44 43 41 40 40 41 41 41 42 41 39 37 36 35 36 36 34 32 32 31 29 28 27 26 26 28 29 28 28 29 30 30 31 33 36 36 32 31 32 34 36 37 38 39 37 32 27 26 28 29 30 33 33 34 37 34 31 29 23 24 35 36 30 34 39 36 33 33 32 32 32 32 33 35 38 40 43 45 46
32 34 34 33 30 31 35 37 38 39 38 38 37 36 36 37 38 39 38 37 36 35 35 36 38 37 35 33 31 28 27 27 28 30 31 31 31 32 34 35 35 34 34 36 36 33 32 35 37 37 38 40 40 38 36 34 30 28 29 31 33 33 35 39 37 35 34 30 30 36 35 33 40 42 37 35 35 35 36 36 37 40 41 43 45 45 44 42
36 36 35 34 32 31 30 29 28 28 30 31 32 33 34 35 36 35 33 31 31 32 32 34 36 35 35 33 31 29 28 29 31 32 32 32 33 35 36 37 37 38 38 38 38 36 34 36 38 38 38 38 38 37 35 34 31 31 32 34 36 36 38 38 38 37 35 34 37 38 36 40 45 45 41 40 39 40 40 40 42 44 44 44 42 40 38 37
38 38 36 35 36 36 34 33 31 29 29 29 31 33 34 34 35 34 32 31 31 31 32 34 34 33 33 33 33 35 37 35 34 34 34 34 35 35 37 37 37 38 38 38 37 35 36 36 35 36 35 32 33 33 31 31 31 32 35 39 39 37 37 38 39 38 36 37 41 42 43 47 47 44 43 42 41 41 40 41 42 41 40 39 37 36 36 36
38 38 37 36 37 36 36 36 34 34 34 34 36 38 36 35 36 34 33 34 34 34 35 36 35 33 33 33 34 37 38 34 32 33 34 36 36 36 37 37 36 35 36 36 36 35 37 36 35 32 27 27 31 31 31 35 34 34 42 46 43 41 42 43 41 40 41 43 42 41 45 47 43 39 39 37 35 36 36 36 36 34 34 35 35 36 37 36
39 39 38 37 38 38 38 37 36 36 38 39 40 40 38 38 37 35 34 35 34 35 35 35 35 33 33 34 35 34 32 29 30 33 34 36 38 39 39 38 38 37 35 35 36 37 37 37 37 33 26 27 32 32 32 31 24 28 44 49 43 43 45 44 43 42 42 41 39 39 41 40 35 33 33 32 31 32 33 32 32 32 33 34 36 36 36 34
Wind_Direction
193 194 197 198 199 201 201 203 207 209 212 217 228 241 254 266 277 285 290 292 293 292 291 289 285 282 279 278 278 279 281 281 283 285 283 282 284 280 277 276 274 277 281 283 286 288 288 287 289 292 294 298 303 306 304 304 306 304 305 302 286 270 262 254 254 266 278 285 286 290 293 300 309 304 301 304 309 317 329 324 305 303 306 302 297 293 291 290
206 209 212 214 217 219 221 222 225 229 233 237 246 255 263 273 279 285 289 290 290 290 290 287 286 285 283 283 283 283 285 287 288 290 289 288 285 280 274 268 269 276 281 284 287 289 288 288 292 295 298 303 309 312 309 309 310 307 307 306 298 288 265 251 259 269 279 288 290 294 293 298 305 300 302 306 309 319 320 305 294 304 307 294 295 297 296 293
217 221 225 229 232 233 234 235 238 241 244 247 254 260 267 273 278 283 284 284 285 285 285 285 285 285 284 285 284 285 285 285 288 290 290 289 283 276 276 275 278 282 283 285 288 290 289 290 294 297 304 310 314 315 309 306 306 305 307 307 303 296 275 265 272 274 283 292 294 295 294 296 298 296 303 303 307 322 312 304 309 312 299 290 294 291 287 283
225 229 234 238 241 243 243 243 245 247 248 253 258 263 269 273 277 279 280 281 281 281 280 282 283 282 283 282 282 284 282 284 288 286 282 278 277 279 284 285 285 284 284 286 289 292 294 295 296 299 306 307 307 306 301 300 301 303 304 303 299 295 287 275 278 281 286 291 293 295 293 292 292 293 297 294 302 318 302 299 310 312 306 298 293 286 281 276
231 235 238 243 245 247 247 248 249 250 252 256 260 264 269 273 276 277 278 278 277 278 278 279 280 280 280 279 280 280 282 289 284 274 272 275 281 285 286 286 284 282 283 288 290 291 292 293 296 297 298 298 300 299 295 296 298 300 301 302 298 295 289 275 280 284 286 289 292 295 290 291 296 295 292 291 299 304 294 293 311 318 311 296 288 283 280 277
236 239 242 245 247 249 250 251 251 252 255 258 261 264 269 271 273 274 275 275 275 276 276 278 278 278 277 276 277 276 278 284 271 264 273 277 280 283 284 282 280 281 286 289 290 290 292 293 294 295 296 298 298 298 295 297 298 298 300 301 296 292 292 287 284 289 294 294 296 292 289 299 303 294 291 293 291 286 282 302 323 322 301 288 285 283 280 275
240 243 246 248 249 250 251 252 253 255 258 261 265 268 270 272 273 274 274 275 276 276 276 277 277 277 277 275 275 272 272 271 268 271 273 273 276 279 280 280 280 284 287 288 289 290 292 294 294 293 295 296 296 297 296 297 297 297 299 296 291 290 294 292 289 298 300 296 296 291 295 311 302 295 305 299 284 273 269 302 319 314 300 291 279 273 274 274
243 245 248 250 251 252 253 254 256 258 262 265 268 270 272 273 273 274 274 275 276 277 277 276 275 275 275 274 273 271 271 269 271 276 275 274 276 277 279 280 282 285 287 287 289 291 292 292 291 292 292 291 292 294 293 294 294 294 295 291 289 292 294 294 299 307 300 295 296 295 303 315 296 300 318 303 278 270 275 301 309 306 304 299 282 266 264 268
244 247 249 251 251 253 254 256 258 261 264 266 268 270 271 271 272 272 273 273 274 275 275 274 274 272 272 274 272 272 274 271 272 277 277 277 278 278 280 281 282 284 285 286 286 287 288 287 287 288 288 287 288 289 290 290 289 290 290 289 292 294 295 299 305 307 297 295 297 297 305 305 293 303 316 293 272 267 280 297 303 303 300 294 286 274 263 262
246 248 250 251 252 254 256 258 260 262 264 266 267 268 269 269 270 271 271 272 272 272 272 273 272 271 271 272 271 274 275 271 272 275 276 277 277 278 279 279 280 282 282 283 283 283 283 283 283 284 284 284 286 287 287 285 285 287 287 289 294 293 296 302 303 298 293 296 295 294 300 296 290 300 307 280 276 281 287 295 300 300 297 288 282 275 267 262
248 249 251 252 254 255 258 259 261 263 265 266 267 267 268 269 269 269 270 270 270 271 272 273 273 272 272 271 273 278 276 272 273 274 274 276 276 276 276 277 279 280 280 280 280 280 280 280 280 281 281 282 284 285 284 284 284 286 286 288 292 292 297 303 298 295 296 293 288 288 294 292 286 293 295 276 281 289 291 293 298 297 292 284 278 274 270 267
249 250 252 254 256 257 259 260 262 264 265 266 267 268 268 269 269 269 269 269 270 272 273 274 274 274 274 273 276 279 276 273 273 272 273 274 274 275 275 277 277 278 278 278 278 278 278 277 277 277 276 279 282 282 283 284 285 286 287 289 290 291 296 297 293 298 299 290 283 285 288 286 284 287 287 281 284 289 290 293 296 293 287 281 278 278 276 276
250 251 253 255 256 258 259 261 262 264 265 266 266 267 268 268 268 268 269 270 271 272 273 274 274 275 275 275 276 276 274 274 273 272 272 272 272 273 274 275 276 276 276 275 276 276 274 274 274 273 273 276 279 279 280 282 282 284 286 288 291 293 295 294 293 297 294 287 284 284 279 276 279 280 281 282 284 288 291 293 293 288 284 282 283 284 283 281
249 251 253 255 256 258 259 260 261 262 263 264 265 265 265 266 267 267 268 268 269 271 272 272 273 274 273 274 275 274 273 274 274 274 273 272 271 272 273 273 273 273 273 273 272 271 270 271 270 270 272 274 277 279 278 278 279 282 282 284 289 291 291 294 294 293 290 284 278 276 275 276 280 280 280 283 287 291 293 291 289 285 284 286 287 287 285 284
249 251 253 254 256 257 258 259 260 260 261 262 262 263 264 264 265 265 266 267 268 269 269 271 272 273 273 273 274 273 273 274 274 275 274 273 272 271 271 270 270 270 271 271 269 268 267 267 267 269 271 274 276 276 275 276 278 280 280 282 285 285 288 292 294 292 287 279 273 272 275 277 282 286 288 289 293 296 292 285 284 284 285 286 287 287 287 290
250 252 253 254 255 256 257 257 258 258 259 260 260 261 262 263 264 264 265 266 267 268 269 270 271 272 273 273 273 274 275 274 273 273 273 273 271 270 269 269 269 269 269 269 269 268 267 266 266 267 269 272 272 272 274 275 277 279 279 281 284 287 290 293 294 293 288 280 272 269 269 273 282 290 292 293 295 297 288 280 284 286 285 285 286 288 291 297
251 252 253 253 254 255 256 256 257 258 258 259 261 262 263 264 265 265 266 267 268 269 269 269 271 271 272 274 274 274 275 274 272 272 272 272 271 270 268 266 266 266 266 267 267 267 265 263 263 264 266 268 268 269 268 269 277 283 283 284 287 288 288 289 291 293 289 281 270 269 273 277 285 293 292 289 287 283 279 281 284 283 281 283 287 290 295 302
251 251 252 253 253 254 255 256 258 259 260 261 263 264 265 266 267 267 268 268 268 269 269 270 271 270 271 273 274 273 272 271 271 271 269 268 268 267 265 264 263 264 266 267 266 264 262 261 261 262 265 265 266 267 266 272 285 288 283 284 284 281 280 284 288 287 283 277 271 273 279 282 288 294 289 278 271 267 276 282 281 279 280 283 288 292 298 302
250 251 251 252 253 254 256 257 259 260 261 263 264 265 267 267 268 268 269 268 268 268 269 269 268 267 270 272 272 271 269 269 269 268 267 267 266 266 267 267 266 266 266 264 262 260 259 261 261 263 267 270 276 279 277 282 287 281 277 276 275 274 276 281 284 282 278 276 275 277 282 286 288 288 276 267 269 275 280 279 277 278 279 280 287 295 299 296
250 251 252 253 254 255 257 258 258 260 261 262 264 266 267 268 269 269 269 268 268 268 267 267 267 267 268 269 268 268 268 267 267 267 266 266 267 268 267 267 266 266 265 262 259 260 262 262 262 266 274 281 284 282 279 278 274 269 268 268 269 271 276 282 283 279 277 277 279 282 286 288 287 284 281 279 282 285 283 277 277 278 273 272 286 297 296 287
250 251 252 253 254 256 256 257 258 259 260 261 263 264 266 268 269 269 269 268 267 267 266 266 266 266 266 267 267 267 267 265 264 264 265 266 267 267 266 265 265 265 265 263 261 263 263 262 266 274 282 283 277 270 267 265 263 262 262 264 266 269 274 282 283 279 276 275 278 284 285 284 287 289 288 291 293 291 285 280 281 275 264 271 285 293 291 283
251 252 252 253 254 254 255 256 257 258 258 259 260 262 264 265 266 269 271 270 267 266 266 265 265 266 266 267 266 265 264 263 264 264 265 266 266 266 265 264 264 264 264 262 261 262 261 263 273 282 280 271 263 260 259 258 257 257 258 261 264 268 277 283 283 282 277 274 280 287 284 283 289 290 291 294 293 287 284 285 284 275 270 275 282 287 290 291
250 251 251 252 252 252 253 253 254 255 255 256 258 260 262 264 266 268 271 272 270 265 265 265 266 266 265 264 264 263 262 263 264 264 263 263 263 263 262 262 263 263 262 262 263 261 261 270 281 279 266 261 259 258 256 253 252 253 256 259 263 271 278 281 281 283 284 285 287 288 286 286 290 290 293 292 280 276 292 291 283 276 275 279 282 287 292 295
248 249 249 250 250 250 250 251 252 252 252 255 257 259 261 264 267 269 272 275 273 268 266 266 266 265 264 263 263 261 262 262 260 259 259 259 259 259 260 262 262 262 263 265 267 266 267 274 277 270 265 262 257 253 252 250 251 254 256 258 265 272 275 278 278 278 284 285 285 288 291 291 293 294 290 271 255 283 293 287 278 272 271 277 284 290 292 291
246 247 247 248 249 249 249 250 250 250 252 254 256 259 261 264 268 271 274 277 276 272 269 269 267 265 263 260 259 258 258 258 256 255 255 254 255 256 257 259 260 262 265 267 268 268 270 272 270 266 262 255 250 248 248 248 252 256 257 260 267 272 272 273 273 276 284 284 282 292 302 299 290 278 263 258 273 288 286 276 271 269 270 277 286 289 289 288
245 245 246 247 247 248 248 250 250 251 253 254 257 259 261 264 267 271 275 279 278 276 275 272 268 265 262 256 253 253 252 253 253 251 251 250 251 254 255 256 259 262 265 266 265 266 269 268 264 260 255 248 243 243 243 242 247 254 259 264 268 269 266 264 267 273 277 276 275 287 295 276 256 257 268 274 278 277 270 263 263 267 275 283 287 286 284 285
243 243 244 245 246 247 249 250 250 252 253 254 257 258 261 264 266 271 278 284 280 278 275 269 263 262 260 252 247 243 243 249 250 247 247 247 249 251 254 256 259 261 260 258 255 261 270 270 261 255 250 245 241 242 243 237 241 250 257 264 263 257 255 257 268 270 270 275 275 277 281 276 271 276 278 272 268 262 255 255 259 267 279 286 284 281 280 282
241 242 243 245 246 247 249 249 250 251 254 255 255 258 260 261 264 268 274 280 276 277 269 253 250 255 252 243 240 235 236 243 244 243 245 244 245 247 249 253 256 258 255 250 249 256 267 267 256 248 241 242 243 245 242 232 236 244 251 258 258 253 253 260 271 275 280 282 274 272 276 272 274 280 268 250 253 251 248 252 262 271 279 282 278 275 276 278
241 241 242 244 246 247 248 249 250 252 254 254 256 258 256 257 259 257 252 244 251 257 251 238 230 236 241 235 233 232 234 237 236 238 239 234 235 239 243 246 249 249 248 247 249 251 253 252 245 239 237 239 241 238 228 224 232 241 246 253 258 262 265 270 276 280 285 280 264 273 272 258 271 275 241 237 245 242 247 256 265 272 274 274 272 270 273 273
242 242 243 245 246 247 248 249 250 251 254 255 255 254 250 250 246 232 223 234 240 243 230 218 220 226 233 234 231 230 229 230 230 231 231 231 232 234 238 240 240 242 243 246 248 246 244 241 234 231 233 229 220 214 212 216 227 237 242 248 257 266 269 272 276 280 287 277 259 274 265 246 264 284 215 225 236 236 246 252 254 266 273 274 273 270 270 269
243 244 244 246 248 250 250 251 249 250 253 252 251 249 243 238 228 213 226 238 240 244 223 208 217 227 233 236 234 231 226 223 224 225 230 235 237 236 234 234 234 235 237 241 246 244 237 233 229 228 226 221 217 215 216 221 228 233 239 245 253 265 270 272 272 270 267 262 269 279 257 232 229 232 206 216 233 226 222 234 255 282 294 285 279 274 270 266
244 245 246 247 249 250 251 253 250 249 251 250 249 243 229 219 216 215 222 234 240 241 224 216 221 225 228 232 230 230 228 226 226 228 233 236 237 239 238 237 233 226 231 238 243 244 236 229 227 226 225 226 230 231 230 231 232 235 238 239 241 263 297 277 260 250 240 249 264 266 248 225 233 246 242 236 237 221 221 268 287 289 300 293 288 280 272 266
245 246 247 247 247 247 247 249 246 243 244 243 239 226 211 204 219 220 216 217 222 221 216 217 221 222 224 226 225 226 227 229 231 232 233 232 233 235 233 233 232 227 230 234 233 237 239 235 230 230 232 232 233 235 237 238 239 239 237 231 224 193 51 271 254 280 266 257 254 245 235 237 246 253 246 242 240 232 241 265 274 277 284 285 283 278 274 269
246 244 244 242 241 240 240 240 239 235 232 229 224 215 208 211 227 221 215 217 222 227 222 212 213 217 221 225 228 229 228 232 235 235 234 231 228 228 225 225 226 226 228 226 222 224 230 239 233 230 234 235 236 239 241 244 246 244 240 235 232 226 219 234 227 216 258 280 246 217 213 230 234 232 229 230 233 234 243 254 261 266 267 271 276 273 269 264
243 243 242 240 237 237 237 238 240 236 226 223 223 217 216 223 227 217 217 220 224 229 229 218 214 216 219 223 227 229 229 232 234 234 235 234 233 236 235 232 228 224 222 222 222 221 227 241 243 239 241 241 241 240 237 239 241 242 237 233 236 239 237 242 255 255 272 310 267 219 225 246 251 249 236 224 229 232 239 246 249 255 263 269 274 270 263 257
242 242 241 241 242 241 239 238 241 237 229 227 226 222 223 226 225 221 223 223 225 228 226 222 219 217 219 222 223 224 225 228 231 230 232 236 240 241 240 239 235 230 231 232 228 224 228 239 244 245 249 248 245 241 233 232 235 235 232 233 238 241 237 238 263 276 277 292 266 232 236 251 259 262 253 243 243 237 235 243 246 250 258 263 265 263 257 253
242 239 238 241 240 238 236 234 236 234 229 229 229 228 231 231 226 224 224 222 223 226 226 226 224 222 222 221 221 222 222 223 227 228 230 233 238 241 239 239 237 236 241 243 239 239 241 245 247 244 246 247 244 239 232 229 232 233 235 239 241 238 232 229 248 304 288 266 264 242 240 246 246 254 256 247 244 243 237 241 243 243 248 255 260 258 254 254
238 233 234 234 232 232 232 229 230 231 229 230 231 233 236 235 229 224 219 219 222 224 226 228 229 228 227 224 222 221 220 221 224 226 229 230 235 241 240 239 240 240 242 243 241 242 244 248 253 246 238 237 236 235 231 229 230 232 238 243 237 227 218 212 214 260 245 237 278 256 250 250 244 248 257 251 246 249 243 242 245 246 250 254 255 254 254 256
235 233 231 229 228 233 234 231 232 232 226 225 225 228 232 234 231 226 225 230 234 231 230 231 231 229 228 228 226 222 222 225 227 226 228 230 234 239 238 237 241 242 241 240 239 241 242 244 250 242 233 231 231 231 230 229 229 230 234 237 235 231 222 212 212 218 210 210 277 275 267 265 260 257 256 250 258 265 260 253 248 245 246 246 248 252 254 254
233 234 235 233 230 232 234 233 230 222 216 217 219 221 227 230 231 230 232 237 239 238 237 236 233 231 230 228 224 223 224 227 229 229 230 232 235 239 239 237 239 241 240 239 238 239 240 239 240 237 226 221 224 228 231 234 235 235 235 233 233 232 229 229 232 232 227 214 237 256 269 271 272 272 254 251 271 275 266 257 249 244 248 252 254 255 253 252
228 229 232 231 227 229 230 224 214 208 211 218 220 220 225 230 235 237 236 236 237 237 238 237 235 234 234 231 226 224 223 225 228 231 233 236 236 239 242 242 243 242 239 235 234 235 234 233 235 231 221 218 224 232 237 240 241 244 245 246 246 239 232 229 239 238 232 225 224 219 264 270 271 274 267 265 274 270 259 258 259 260 265 264 257 252 250 249
224 226 229 227 224 227 224 212 206 208 216 222 222 224 231 237 240 239 235 235 236 237 238 238 237 236 236 235 233 231 230 230 231 231 234 237 239 242 247 248 246 242 238 236 236 236 234 233 235 235 234 232 233 235 239 242 243 243 245 248 248 243 235 229 232 239 231 225 235 236 255 269 270 274 277 275 268 264 261 263 268 272 269 259 251 250 250 248
229 231 231 228 224 224 218 210 207 212 221 227 228 230 235 239 239 236 234 235 236 238 239 239 239 239 237 237 237 237 238 236 235 234 236 240 242 244 246 245 242 237 234 234 233 231 229 229 232 238 244 242 239 240 242 244 245 242 242 244 242 241 240 238 238 242 235 228 232 224 242 264 268 274 277 273 264 262 266 267 270 272 265 256 253 254 254 254
239 241 239 233 227 222 218 216 216 217 221 228 230 230 233 237 238 236 236 237 237 238 239 239 240 241 240 239 239 239 238 236 235 236 238 242 245 245 244 243 241 236 231 231 232 228 226 226 226 231 246 247 241 240 236 235 237 237 238 239 238 239 239 236 238 241 243 245 239 222 244 259 265 271 270 269 268 267 270 272 272 267 260 260 263 262 261 265
233 232 232 232 229 222 219 222 226 227 227 229 229 230 231 234 236 235 236 237 236 236 237 237 238 238 238 238 238 238 238 238 238 237 239 243 245 247 246 245 246 243 238 235 233 229 228 227 223 220 220 225 229 228 230 235 235 232 233 233 234 235 232 234 242 239 238 248 241 237 250 257 261 265 265 268 272 272 273 276 273 265 260 264 268 269 271 276
223 219 217 220 223 222 222 225 229 232 233 232 232 233 232 234 236 236 236 237 236 234 234 235 235 235 236 236 236 237 237 238 241 241 243 246 249 252 252 249 249 247 244 240 234 229 233 237 236 236 237 242 247 249 251 251 240 232 234 235 235 235 236 243 247 239 240 249 246 249 255 255 259 264 265 268 272 274 276 277 275 271 269 271 273 275 278 281
221 222 218 216 217 220 223 224 225 229 231 231 233 235 236 237 238 239 239 241 242 240 238 239 239 237 237 235 234 234 235 237 241 244 246 248 252 255 256 256 254 251 249 244 237 236 241 246 249 250 249 250 253 254 256 256 249 243 242 242 242 243 246 249 247 245 249 249 248 256 258 257 264 270 269 268 271 275 276 275 274 274 274 275 277 279 281 283
224 225 224 221 219 222 224 224 225 227 228 229 231 233 235 236 237 239 241 245 247 246 245 245 246 246 245 241 238 240 241 242 244 245 246 250 253 254 255 256 256 254 252 247 245 248 249 250 253 251 248 247 247 249 251 252 251 249 248 248 250 250 252 253 252 255 255 248 252 263 263 261 269 273 271 270 272 273 273 272 273 274 275 276 277 278 281 283
231 231 231 231 232 235 235 236 236 235 235 235 235 235 237 239 239 241 244 246 247 248 247 249 250 251 249 247 246 247 249 250 253 254 255 255 255 255 255 256 256 256 254 251 253 254 248 246 249 246 243 243 243 244 247 248 249 250 251 254 256 254 254 255 256 257 255 252 258 264 263 263 268 270 270 270 272 272 272 272 273 274 274 275 276 278 279 280
235 236 237 239 241 243 244 245 245 246 245 242 242 243 242 242 244 244 245 246 249 252 252 253 257 258 257 257 257 257 259 261 263 264 263 261 258 257 257 257 257 258 257 253 252 249 242 240 243 242 242 243 243 244 247 251 253 255 257 259 256 252 252 252 252 254 253 255 261 262 261 264 269 273 273 274 274 274 272 271 270 271 273 275 277 278 278 279
237 239 240 242 245 246 248 250 250 250 249 246 247 249 247 247 250 251 251 252 253 255 257 260 263 264 263 261 259 262 266 267 263 260 260 260 260 259 259 260 260 260 258 253 249 244 239 238 240 242 244 245 248 251 252 254 255 255 257 257 253 251 254 255 256 259 260 262 265 262 261 267 276 279 278 276 274 271 270 270 271 272 274 275 277 278 279 280
240 241 242 243 246 247 249 252 252 251 252 252 253 255 255 256 259 257 254 255 256 256 257 260 262 260 258 257 258 263 267 263 257 256 256 257 259 259 258 257 255 255 256 254 250 245 241 241 242 243 243 245 248 248 244 245 249 251 253 256 255 256 260 262 263 266 267 266 265 263 266 275 281 279 275 274 273 271 272 273 273 273 274 274 276 278 279 280
Height
3177 3177 3178 3178 3179 3179 3180 3180 3180 3181 3181 3182 3182 3182 3183 3183 3183 3183 3183 3183 3183 3183 3183 3183 3183 3183 3183 3183 3183 3183 3182 3182 3182 3182 3182 3182 3181 3181 3181 3181 3181 3181 3181 3180 3180 3180 3180 3180 3180 3179 3179 3179 3179 3179 3179 3179 3179 3179 3179 3178 3178 3178 3178 3177 3177 3177 3176 3176 3176 3176 3175 3175 3175 3174 3173 3173 3173 3173 3173 3173 3171 3171 3170 3169 3167 3167 3166 3166
3176 3176 3177 3177 3178 3178 3179 3179 3179 3180 3180 3181 3181 3181 3182 3182 3182 3182 3182 3182 3182 3182 3182 3182 3182 3182 3182 3182 3182 3182 3181 3181 3181 3181 3181 3180 3180 3180 3180 3180 3180 3180 3179 3179 3179 3179 3179 3179 3179 3178 3178 3178 3178 3178 3178 3178 3178 3178 3178 3177 3177 3177 3177 3177 3176 3176 3175 3175 3175 3175 3174 3174 3173 3172 3172 3171 3171 3171 3171 3171 3170 3170 3170 3168 3167 3166 3165 3165
3174 3175 3176 3176 3177 3177 3178 3178 3178 3179 3179 3180 3180 3180 3180 3181 3181 3181 3181 3181 3181 3181 3181 3181 3181 3181 3181 3180 3180 3180 3180 3180 3179 3179 3179 3179 3179 3179 3179 3179 3179 3178 3178 3178 3178 3178 3178 3178 3178 3177 3177 3177 3177 3177 3177 3177 3177 3177 3177 3177 3176 3176 3176 3176 3176 3175 3174 3174 3174 3174 3173 3173 3172 3171 3171 3169 3169 3170 3169 3169 3169 3169 3169 3167 3166 3165 3164 3163
3174 3174 3175 3175 3176 3176 3177 3177 3177 3178 3178 3178 3179 3179 3179 3179 3180 3180 3180 3179 3179 3179 3179 3179 3179 3179 3179 3179 3179 3179 3179 3178 3178 3178 3178 3178 3178 3178 3178 3178 3177 3177 3177 3177 3177 3177 3177 3177 3177 3176 3176 3176 3176 3176 3176 3176 3175 3176 3176 3176 3175 3175 3176 3175 3175 3174 3174 3173 3172 3172 3171 3171 3171 3170 3170 3169 3168 3169 3168 3167 3167 3167 3167 3165 3164 3163 3162 3161
3172 3173 3174 3174 3175 3175 3175 3176 3176 3176 3177 3177 3177 3178 3178 3178 3178 3178 3178 3178 3178 3178 3178 3178 3178 3178 3178 3178 3178 3178 3177 3177 3177 3176 3177 3177 3177 3177 3176 3176 3176 3176 3176 3176 3176 3176 3176 3176 3176 3176 3176 3175 3175 3175 3175 3174 3174 3174 3174 3174 3174 3174 3174 3174 3173 3173 3172 3172 3171 3170 3170 3169 3169 3169 3168 3168 3167 3167 3166 3166 3166 3165 3164 3163 3162 3161 3160 3160
3171 3172 3172 3173 3173 3174 3174 3174 3175 3175 3175 3175 3176 3176 3176 3176 3177 3177 3177 3176 3176 3176 3176 3177 3177 3176 3176 3176 3176 3176 3176 3176 3175 3175 3175 3175 3175 3175 3175 3175 3175 3175 3175 3175 3175 3175 3175 3175 3175 3174 3174 3174 3174 3174 3173 3173 3173 3173 3173 3173 3173 3172 3173 3173 3172 3171 3171 3170 3169 3168 3168 3168 3167 3167 3167 3166 3166 3165 3165 3165 3165 3163 3162 3161 3161 3160 3159 3158
3169 3170 3170 3171 3171 3172 3172 3173 3173 3173 3173 3174 3174 3174 3174 3175 3175 3175 3175 3175 3174 3174 3175 3175 3175 3175 3175 3175 3175 3175 3175 3175 3174 3174 3174 3174 3174 3174 3174 3174 3174 3174 3174 3174 3174 3174 3174 3173 3173 3173 3173 3173 3173 3172 3172 3171 3171 3171 3171 3171 3171 3170 3170 3171 3170 3170 3169 3168 3168 3167 3166 3167 3165 3165 3166 3165 3164 3164 3164 3163 3162 3161 3160 3160 3160 3159 3157 3156
3167 3168 3168 3169 3169 3170 3170 3171 3171 3171 3171 3172 3172 3172 3173 3173 3173 3173 3173 3173 3172 3172 3173 3173 3173 3173 3173 3173 3173 3173 3174 3174 3172 3173 3173 3173 3173 3173 3172 3172 3172 3172 3172 3172 3172 3172 3172 3172 3172 3171 3171 3171 3171 3171 3170 3170 3169 3169 3169 3169 3169 3169 3169 3168 3168 3168 3167 3166 3166 3165 3165 3165 3164 3163 3164 3164 3163 3163 3163 3161 3160 3159 3158 3158 3158 3157 3156 3155
3165 3166 3166 3167 3167 3168 3168 3169 3169 3169 3170 3170 3170 3170 3171 3171 3171 3171 3171 3171 3171 3170 3171 3171 3171 3171 3171 3171 3171 3172 3172 3172 3171 3171 3171 3171 3171 3171 3171 3171 3170 3170 3171 3171 3170 3170 3170 3170 3170 3169 3169 3169 3169 3169 3168 3168 3167 3167 3166 3166 3167 3167 3166 3166 3166 3165 3165 3164 3164 3163 3163 3164 3163 3162 3163 3163 3162 3162 3161 3159 3158 3157 3156 3155 3155 3155 3154 3153
3163 3164 3164 3165 3165 3166 3166 3166 3167 3167 3167 3168 3168 3168 3168 3169 3169 3169 3169 3169 3169 3168 3169 3169 3169 3169 3169 3169 3169 3170 3171 3170 3170 3170 3170 3170 3170 3169 3169 3169 3169 3169 3169 3169 3169 3169 3169 3168 3168 3168 3167 3167 3167 3167 3167 3166 3165 3165 3164 3164 3165 3164 3164 3164 3164 3164 3163 3162 3162 3161 3162 3162 3161 3161 3162 3161 3161 3161 3160 3157 3156 3155 3154 3153 3152 3152 3151 3151
3161 3161 3162 3162 3163 3163 3164 3164 3164 3165 3165 3165 3166 3166 3166 3166 3167 3167 3167 3167 3167 3166 3167 3167 3167 3167 3167 3167 3167 3168 3168 3168 3168 3168 3168 3168 3168 3168 3167 3167 3167 3167 3167 3167 3167 3167 3167 3166 3166 3166 3166 3165 3165 3165 3165 3164 3163 3163 3163 3162 3163 3162 3162 3163 3162 3161 3161 3161 3160 3160 3160 3160 3160 3160 3161 3160 3159 3159 3157 3155 3153 3152 3151 3150 3150 3149 3149 3148
3158 3159 3159 3160 3160 3161 3161 3162 3162 3162 3162 3163 3163 3163 3164 3164 3164 3164 3165 3165 3164 3164 3165 3165 3165 3165 3165 3165 3165 3166 3166 3166 3166 3166 3166 3166 3166 3166 3166 3166 3165 3165 3165 3165 3165 3165 3165 3164 3164 3164 3164 3163 3163 3163 3163 3162 3162 3161 3160 3160 3160 3160 3161 3161 3160 3160 3159 3159 3158 3158 3158 3158 3158 3158 3159 3158 3157 3156 3155 3152 3150 3149 3148 3147 3147 3146 3146 3146
3155 3156 3157 3157 3158 3158 3159 3159 3159 3159 3160 3160 3160 3161 3161 3161 3162 3162 3162 3162 3162 3162 3162 3162 3162 3162 3162 3162 3163 3164 3164 3164 3164 3164 3164 3164 3164 3164 3164 3163 3163 3163 3163 3163 3163 3163 3162 3162 3162 3162 3162 3162 3161 3161 3161 3160 3160 3159 3159 3158 3158 3158 3158 3159 3159 3158 3158 3157 3156 3156 3155 3155 3156 3157 3157 3156 3155 3154 3152 3149 3147 3146 3145 3144 3144 3144 3144 3143
3152 3153 3154 3155 3155 3156 3156 3156 3157 3157 3157 3157 3158 3158 3159 3159 3159 3159 3160 3160 3160 3160 3160 3160 3160 3160 3159 3160 3161 3161 3161 3162 3161 3161 3162 3162 3162 3161 3161 3161 3161 3160 3160 3160 3160 3160 3160 3160 3160 3160 3160 3160 3159 3159 3159 3158 3158 3158 3157 3156 3156 3156 3156 3157 3157 3156 3156 3155 3154 3154 3152 3152 3154 3155 3155 3154 3152 3151 3149 3146 3145 3144 3143 3142 3141 3141 3141 3141
3150 3150 3151 3152 3152 3153 3153 3154 3154 3154 3155 3155 3155 3156 3156 3157 3157 3157 3157 3157 3158 3158 3158 3158 3158 3157 3157 3158 3159 3158 3159 3159 3159 3159 3159 3159 3159 3159 3159 3158 3158 3158 3158 3158 3158 3158 3158 3157 3158 3158 3158 3158 3157 3157 3156 3156 3156 3156 3155 3154 3155 3154 3154 3155 3155 3153 3153 3153 3152 3152 3150 3148 3150 3152 3152 3151 3149 3148 3147 3144 3142 3142 3141 3140 3139 3139 3138 3138
3147 3148 3148 3149 3150 3150 3151 3151 3151 3152 3152 3152 3153 3153 3154 3154 3154 3155 3155 3155 3155 3155 3155 3155 3155 3154 3154 3155 3156 3155 3156 3156 3156 3156 3155 3156 3156 3156 3156 3156 3155 3156 3155 3155 3155 3155 3155 3155 3155 3155 3155 3155 3155 3154 3154 3154 3154 3154 3153 3152 3153 3152 3151 3152 3152 3151 3150 3150 3150 3149 3147 3146 3147 3149 3150 3148 3146 3145 3144 3141 3141 3140 3139 3138 3137 3137 3136 3136
3144 3145 3145 3146 3147 3147 3148 3148 3149 3149 3149 3150 3150 3150 3151 3151 3151 3151 3152 3152 3152 3152 3152 3151 3152 3151 3151 3152 3152 3153 3153 3152 3153 3153 3153 3153 3152 3153 3153 3153 3153 3153 3153 3153 3153 3153 3153 3153 3153 3153 3153 3153 3152 3153 3152 3151 3151 3152 3151 3150 3150 3150 3149 3149 3150 3149 3148 3147 3147 3146 3144 3143 3144 3146 3147 3146 3144 3143 3142 3140 3139 3139 3137 3136 3136 3135 3134 3134
3141 3142 3142 3143 3144 3144 3145 3145 3146 3146 3147 3147 3147 3148 3148 3148 3148 3148 3148 3149 3149 3149 3149 3148 3149 3148 3148 3149 3149 3150 3150 3149 3150 3150 3150 3150 3150 3150 3150 3151 3151 3151 3151 3151 3150 3151 3151 3150 3150 3151 3151 3150 3150 3151 3150 3149 3149 3150 3149 3147 3147 3147 3146 3146 3147 3147 3146 3144 3144 3144 3142 3141 3142 3143 3144 3143 3142 3142 3140 3139 3138 3136 3136 3135 3134 3133 3133 3132
3138 3139 3139 3140 3141 3141 3142 3142 3143 3143 3144 3144 3144 3145 3145 3145 3145 3145 3145 3145 3145 3146 3146 3145 3145 3145 3145 3146 3147 3146 3147 3147 3147 3147 3147 3147 3147 3147 3148 3148 3148 3148 3148 3148 3148 3148 3148 3147 3147 3147 3147 3147 3148 3148 3147 3146 3147 3146 3146 3145 3143 3143 3143 3143 3144 3144 3143 3141 3141 3141 3140 3140 3140 3141 3141 3140 3140 3140 3139 3137 3135 3134 3134 3134 3133 3132 3131 3131
3134 3135 3136 3137 3137 3138 3138 3139 3140 3140 3141 3141 3141 3142 3142 3142 3142 3141 3141 3141 3142 3142 3142 3142 3142 3142 3142 3143 3144 3143 3144 3144 3144 3145 3145 3144 3144 3144 3144 3144 3144 3145 3145 3145 3145 3145 3145 3144 3143 3144 3144 3145 3146 3145 3144 3144 3144 3143 3142 3142 3141 3140 3139 3140 3141 3142 3141 3138 3138 3139 3138 3137 3138 3139 3138 3138 3138 3137 3136 3135 3133 3133 3132 3132 3132 3131 3130 3130
3131 3132 3133 3133 3134 3134 3135 3136 3136 3137 3138 3138 3139 3139 3139 3139 3138 3138 3138 3138 3138 3139 3138 3139 3138 3138 3139 3140 3140 3140 3140 3141 3141 3141 3141 3141 3141 3141 3141 3141 3141 3141 3141 3142 3142 3141 3141 3139 3140 3142 3143 3143 3143 3142 3142 3141 3140 3140 3140 3139 3138 3137 3136 3138 3139 3139 3138 3136 3136 3136 3135 3135 3137 3136 3136 3135 3135 3134 3133 3132 3131 3131 3131 3130 3130 3129 3129 3128
3127 3128 3129 3130 3130 3131 3131 3132 3133 3134 3135 3135 3136 3136 3137 3136 3135 3135 3134 3133 3134 3135 3135 3135 3134 3135 3137 3137 3137 3137 3136 3137 3137 3138 3138 3138 3138 3137 3137 3137 3138 3138 3138 3139 3138 3138 3136 3136 3138 3141 3140 3140 3139 3139 3139 3138 3137 3137 3137 3136 3135 3135 3135 3136 3136 3135 3135 3134 3134 3134 3133 3134 3134 3134 3133 3132 3131 3131 3130 3130 3130 3129 3129 3128 3128 3127 3127 3127
3124 3124 3126 3126 3127 3128 3128 3129 3130 3131 3132 3132 3133 3134 3134 3133 3133 3133 3132 3129 3129 3131 3131 3131 3131 3131 3133 3133 3133 3133 3132 3133 3134 3134 3135 3134 3134 3134 3132 3133 3135 3135 3135 3135 3135 3134 3133 3134 3138 3138 3137 3137 3137 3136 3136 3135 3134 3134 3135 3134 3133 3134 3134 3134 3134 3134 3133 3132 3132 3132 3131 3131 3132 3131 3130 3129 3129 3129 3129 3128 3128 3127 3126 3126 3126 3126 3125 3125
3120 3121 3122 3123 3124 3124 3125 3126 3127 3128 3129 3130 3131 3131 3131 3131 3130 3130 3129 3126 3123 3125 3128 3127 3127 3127 3128 3129 3129 3129 3128 3129 3130 3129 3131 3130 3129 3130 3129 3130 3132 3131 3132 3132 3132 3130 3130 3133 3135 3134 3134 3134 3134 3134 3133 3132 3132 3132 3132 3131 3131 3132 3133 3132 3132 3132 3131 3131 3130 3130 3128 3127 3129 3128 3128 3127 3127 3128 3128 3127 3126 3125 3124 3124 3124 3124 3124 3124
3116 3117 3118 3119 3120 3121 3122 3123 3124 3125 3126 3127 3128 3128 3128 3128 3128 3128 3127 3124 3118 3119 3123 3123 3122 3122 3123 3125 3125 3125 3124 3123 3124 3126 3126 3126 3126 3126 3126 3127 3128 3128 3130 3130 3129 3127 3127 3131 3131 3130 3131 3131 3131 3131 3130 3130 3130 3130 3130 3130 3130 3131 3131 3131 3131 3131 3130 3129 3128 3129 3128 3125 3125 3127 3127 3127 3127 3126 3126 3125 3124 3123 3122 3122 3122 3123 3123 3122
3113 3114 3114 3116 3117 3118 3119 3119 3121 3122 3123 3125 3125 3125 3126 3125 3126 3126 3125 3122 3113 3112 3117 3117 3117 3116 3117 3119 3120 3121 3120 3118 3120 3122 3122 3122 3122 3123 3123 3124 3124 3126 3127 3127 3126 3124 3125 3128 3128 3127 3128 3128 3128 3128 3128 3129 3129 3128 3128 3129 3129 3129 3129 3129 3129 3129 3128 3128 3127 3128 3128 3124 3122 3125 3126 3125 3125 3124 3124 3123 3122 3121 3121 3121 3122 3121 3121 3121
3109 3110 3111 3112 3113 3114 3116 3116 3118 3119 3120 3123 3122 3123 3123 3123 3124 3124 3125 3122 3110 3106 3111 3111 3111 3111 3112 3114 3115 3116 3115 3113 3116 3117 3117 3118 3119 3120 3120 3121 3122 3123 3124 3124 3123 3122 3123 3125 3125 3124 3125 3125 3125 3125 3126 3127 3127 3126 3126 3127 3128 3128 3128 3128 3128 3128 3126 3126 3125 3127 3128 3122 3118 3122 3123 3122 3122 3121 3121 3121 3120 3120 3120 3120 3120 3120 3119 3119
3105 3107 3107 3108 3110 3111 3112 3113 3114 3116 3118 3119 3119 3120 3120 3121 3123 3122 3125 3122 3106 3101 3106 3107 3107 3108 3108 3110 3111 3111 3111 3111 3113 3113 3114 3115 3116 3117 3117 3117 3119 3120 3121 3121 3120 3120 3122 3123 3123 3122 3123 3122 3122 3123 3125 3126 3125 3125 3125 3126 3126 3126 3126 3126 3126 3126 3125 3124 3123 3124 3126 3122 3116 3117 3120 3119 3118 3119 3118 3118 3118 3119 3120 3119 3119 3118 3118 3118
3102 3102 3103 3105 3106 3107 3107 3108 3111 3114 3114 3115 3116 3117 3117 3119 3120 3120 3123 3118 3102 3098 3103 3104 3105 3106 3106 3107 3107 3108 3109 3109 3111 3111 3112 3112 3112 3113 3114 3115 3116 3116 3117 3117 3117 3119 3120 3121 3121 3121 3121 3120 3121 3123 3124 3124 3124 3124 3124 3124 3124 3124 3124 3124 3124 3124 3123 3121 3119 3121 3123 3120 3114 3113 3116 3116 3115 3116 3117 3117 3117 3117 3118 3117 3117 3117 3116 3116
3097 3098 3100 3101 3100 3102 3103 3104 3108 3110 3111 3112 3113 3113 3115 3115 3116 3119 3118 3107 3097 3098 3101 3101 3103 3103 3103 3104 3105 3105 3106 3107 3109 3109 3110 3109 3110 3111 3111 3112 3113 3113 3114 3114 3115 3117 3118 3119 3120 3120 3120 3120 3121 3122 3122 3123 3123 3123 3123 3123 3123 3123 3122 3122 3121 3122 3122 3117 3115 3117 3118 3119 3116 3111 3112 3113 3113 3115 3115 3115 3115 3115 3116 3116 3115 3115 3115 3115
3092 3093 3095 3095 3095 3097 3098 3100 3105 3107 3107 3108 3109 3110 3111 3110 3112 3112 3103 3095 3096 3097 3097 3099 3100 3100 3101 3102 3102 3103 3104 3105 3106 3107 3107 3107 3108 3108 3109 3110 3110 3111 3112 3112 3113 3114 3115 3117 3118 3118 3119 3119 3120 3120 3121 3121 3121 3121 3122 3122 3123 3122 3121 3121 3119 3120 3120 3115 3113 3114 3115 3116 3115 3110 3110 3111 3112 3113 3113 3113 3113 3113 3114 3114 3114 3114 3114 3114
3088 3089 3090 3090 3091 3092 3092 3095 3101 3103 3102 3103 3105 3105 3105 3105 3103 3097 3090 3092 3097 3093 3092 3096 3096 3097 3098 3098 3100 3101 3102 3103 3104 3104 3105 3105 3106 3106 3106 3107 3107 3109 3109 3109 3111 3112 3113 3114 3116 3117 3118 3118 3119 3119 3119 3119 3119 3120 3120 3121 3122 3122 3121 3120 3118 3119 3117 3112 3111 3113 3113 3113 3110 3108 3110 3110 3110 3111 3111 3111 3112 3112 3112 3112 3112 3112 3112 3112
3082 3083 3084 3084 3086 3087 3089 3092 3095 3097 3097 3099 3100 3098 3098 3096 3088 3081 3083 3090 3092 3089 3090 3092 3092 3094 3095 3095 3097 3098 3099 3100 3101 3102 3103 3103 3103 3104 3104 3104 3104 3105 3105 3106 3108 3109 3110 3112 3113 3114 3115 3116 3116 3116 3117 3117 3117 3117 3117 3119 3120 3121 3122 3120 3118 3117 3114 3110 3110 3111 3112 3109 3106 3106 3107 3107 3109 3110 3109 3110 3110 3110 3110 3110 3110 3111 3111 3111
3077 3077 3078 3080 3081 3083 3085 3088 3089 3091 3093 3094 3095 3094 3092 3085 3076 3075 3080 3084 3086 3088 3089 3090 3090 3092 3092 3093 3094 3095 3097 3098 3098 3099 3099 3100 3100 3100 3101 3101 3101 3102 3102 3104 3105 3106 3107 3108 3109 3111 3112 3113 3113 3114 3115 3115 3115 3115 3115 3116 3116 3116 3118 3116 3113 3112 3110 3109 3109 3110 3109 3105 3102 3103 3104 3104 3106 3107 3107 3108 3108 3108 3108 3108 3108 3108 3109 3108
3071 3071 3073 3074 3075 3077 3081 3083 3084 3087 3089 3089 3090 3089 3084 3077 3073 3075 3078 3080 3083 3086 3087 3088 3089 3089 3090 3091 3092 3093 3094 3095 3096 3096 3096 3096 3097 3097 3098 3098 3099 3099 3100 3101 3102 3103 3104 3104 3105 3108 3109 3110 3111 3112 3113 3114 3113 3113 3113 3113 3112 3112 3113 3112 3110 3109 3109 3109 3107 3106 3104 3101 3100 3101 3101 3103 3104 3105 3106 3106 3106 3106 3106 3106 3106 3106 3106 3105
3065 3066 3068 3068 3069 3072 3076 3078 3080 3082 3084 3085 3083 3079 3074 3071 3073 3075 3076 3078 3081 3082 3084 3086 3086 3086 3087 3088 3089 3090 3092 3092 3093 3093 3093 3094 3094 3094 3095 3096 3097 3097 3097 3099 3099 3100 3100 3100 3102 3104 3105 3107 3108 3109 3111 3111 3111 3110 3109 3109 3108 3109 3110 3111 3109 3108 3109 3109 3103 3100 3100 3098 3098 3098 3098 3100 3102 3102 3104 3103 3104 3105 3104 3104 3104 3104 3103 3103
3060 3061 3062 3062 3065 3069 3071 3073 3075 3077 3078 3078 3075 3071 3068 3069 3071 3073 3075 3077 3078 3079 3081 3081 3082 3083 3084 3084 3086 3087 3089 3090 3090 3090 3091 3092 3091 3090 3092 3094 3095 3095 3096 3097 3097 3097 3097 3097 3098 3101 3102 3103 3105 3106 3107 3108 3108 3108 3106 3106 3107 3108 3109 3109 3109 3108 3110 3109 3101 3096 3096 3096 3095 3094 3094 3097 3099 3099 3101 3101 3102 3102 3102 3102 3101 3101 3101 3101
3056 3057 3057 3058 3062 3065 3066 3069 3070 3071 3072 3071 3067 3065 3065 3065 3068 3071 3073 3074 3076 3077 3077 3077 3078 3080 3080 3081 3083 3084 3086 3086 3086 3088 3088 3089 3088 3087 3089 3091 3092 3093 3094 3095 3095 3094 3095 3095 3095 3096 3098 3100 3101 3103 3104 3105 3106 3105 3104 3104 3105 3106 3106 3107 3108 3107 3107 3106 3100 3094 3092 3091 3090 3090 3091 3094 3095 3096 3098 3098 3099 3099 3099 3099 3098 3099 3099 3098
3051 3052 3051 3054 3057 3059 3061 3063 3064 3065 3065 3062 3060 3060 3060 3061 3064 3068 3070 3072 3073 3074 3074 3074 3076 3076 3077 3078 3079 3081 3082 3082 3083 3085 3085 3085 3085 3084 3086 3088 3089 3091 3092 3093 3093 3092 3093 3093 3092 3092 3095 3096 3097 3098 3099 3100 3102 3102 3102 3103 3103 3103 3103 3103 3103 3102 3102 3103 3099 3094 3090 3086 3085 3087 3089 3091 3093 3094 3094 3095 3096 3096 3096 3096 3096 3097 3096 3096
3046 3047 3046 3049 3052 3054 3057 3058 3058 3058 3057 3054 3053 3055 3056 3059 3062 3066 3067 3068 3069 3070 3070 3072 3073 3074 3074 3075 3076 3078 3078 3079 3080 3081 3081 3082 3081 3082 3084 3085 3087 3088 3089 3090 3090 3091 3091 3091 3089 3089 3091 3092 3092 3093 3094 3096 3098 3099 3099 3099 3100 3100 3100 3100 3099 3098 3099 3100 3098 3095 3088 3082 3082 3085 3086 3089 3090 3091 3092 3092 3093 3093 3094 3094 3095 3094 3093 3093
3042 3042 3042 3044 3048 3050 3052 3052 3051 3051 3049 3049 3050 3053 3054 3056 3059 3061 3063 3065 3065 3066 3067 3069 3070 3071 3071 3072 3073 3074 3075 3076 3077 3078 3078 3078 3078 3079 3080 3082 3084 3086 3087 3088 3088 3088 3088 3087 3087 3087 3087 3087 3089 3090 3092 3094 3095 3096 3096 3096 3096 3097 3097 3098 3097 3094 3095 3095 3094 3093 3087 3081 3082 3083 3083 3086 3087 3088 3089 3090 3090 3091 3092 3092 3091 3090 3090 3090
3037 3037 3038 3041 3043 3045 3046 3046 3045 3046 3045 3045 3047 3049 3051 3052 3054 3057 3059 3060 3061 3063 3064 3065 3066 3067 3068 3069 3070 3071 3072 3073 3073 3074 3074 3074 3075 3077 3078 3079 3081 3083 3084 3085 3085 3085 3086 3085 3085 3084 3084 3086 3087 3088 3089 3090 3091 3093 3093 3093 3093 3093 3093 3094 3092 3089 3091 3090 3089 3089 3085 3079 3080 3081 3081 3083 3084 3085 3086 3087 3087 3088 3088 3088 3087 3087 3088 3087
3032 3033 3035 3037 3039 3041 3042 3041 3041 3041 3040 3041 3044 3046 3048 3049 3051 3053 3054 3056 3057 3059 3060 3061 3062 3063 3064 3065 3066 3067 3068 3069 3069 3069 3069 3071 3072 3073 3074 3076 3078 3080 3081 3082 3082 3083 3083 3082 3082 3082 3082 3083 3084 3085 3085 3086 3088 3088 3088 3088 3088 3088 3088 3088 3087 3086 3087 3085 3084 3087 3083 3077 3078 3080 3080 3080 3081 3083 3084 3084 3085 3085 3085 3084 3084 3084 3085 3084
3028 3029 3031 3033 3035 3037 3036 3036 3036 3036 3037 3039 3041 3043 3044 3045 3047 3048 3050 3052 3054 3055 3056 3057 3058 3059 3060 3061 3062 3063 3064 3064 3064 3064 3066 3068 3068 3070 3071 3073 3075 3076 3078 3078 3079 3079 3079 3078 3078 3080 3081 3081 3081 3082 3082 3082 3082 3082 3083 3083 3083 3083 3084 3084 3083 3084 3082 3079 3080 3083 3078 3075 3077 3078 3077 3078 3079 3080 3081 3082 3083 3082 3081 3081 3081 3081 3080 3079
3024 3025 3026 3029 3031 3031 3031 3031 3033 3034 3036 3037 3038 3039 3041 3041 3042 3044 3046 3048 3050 3051 3051 3052 3053 3054 3055 3057 3057 3058 3059 3060 3060 3061 3062 3064 3065 3066 3068 3070 3072 3073 3074 3076 3076 3076 3075 3074 3074 3075 3076 3075 3075 3075 3074 3075 3076 3077 3077 3078 3079 3079 3080 3079 3080 3080 3077 3075 3077 3077 3072 3073 3077 3076 3075 3076 3077 3077 3078 3079 3080 3079 3078 3078 3078 3077 3075 3074
3020 3020 3021 3023 3025 3026 3026 3028 3030 3031 3033 3034 3034 3035 3037 3037 3039 3041 3043 3044 3046 3047 3047 3047 3048 3049 3050 3051 3052 3053 3054 3056 3057 3057 3058 3060 3062 3063 3065 3066 3068 3069 3070 3071 3072 3072 3071 3070 3070 3069 3068 3068 3068 3068 3070 3071 3072 3073 3073 3075 3075 3075 3076 3076 3075 3072 3072 3073 3073 3070 3069 3071 3074 3074 3073 3074 3075 3075 3075 3075 3076 3076 3075 3075 3074 3072 3070 3069
3015 3017 3018 3019 3020 3021 3022 3024 3025 3026 3028 3030 3030 3031 3032 3034 3036 3038 3039 3040 3042 3043 3044 3044 3045 3046 3046 3047 3048 3048 3050 3052 3053 3053 3054 3056 3058 3060 3061 3062 3064 3065 3066 3067 3067 3067 3066 3065 3065 3065 3064 3064 3065 3066 3068 3068 3068 3069 3070 3071 3071 3071 3071 3070 3067 3066 3070 3071 3066 3065 3068 3069 3069 3071 3070 3071 3072 3072 3072 3072 3072 3072 3071 3070 3068 3067 3065 3065
3011 3013 3015 3016 3016 3016 3018 3019 3021 3022 3024 3025 3026 3027 3029 3030 3032 3033 3034 3036 3037 3039 3040 3040 3040 3042 3043 3044 3045 3045 3047 3048 3048 3049 3051 3053 3055 3056 3057 3058 3059 3060 3062 3062 3062 3063 3062 3060 3060 3061 3061 3061 3062 3063 3063 3064 3064 3065 3065 3066 3066 3066 3065 3063 3062 3063 3066 3064 3061 3063 3066 3065 3064 3066 3067 3068 3069 3069 3069 3068 3067 3067 3066 3065 3063 3062 3061 3061
3009 3010 3011 3013 3013 3014 3016 3017 3019 3020 3021 3022 3022 3023 3025 3026 3027 3029 3031 3032 3033 3035 3036 3036 3036 3039 3040 3041 3042 3042 3043 3044 3044 3046 3049 3050 3052 3052 3053 3054 3054 3055 3057 3057 3058 3059 3058 3055 3056 3057 3056 3056 3057 3058 3059 3060 3059 3059 3060 3061 3061 3060 3059 3058 3058 3059 3060 3058 3058 3061 3061 3059 3059 3061 3063 3065 3065 3064 3065 3065 3063 3061 3060 3059 3058 3058 3057 3056
3005 3006 3008 3009 3009 3011 3012 3014 3015 3016 3017 3019 3018 3019 3021 3022 3024 3026 3028 3028 3029 3031 3032 3032 3033 3036 3037 3038 3038 3037 3038 3040 3041 3043 3045 3046 3047 3048 3048 3048 3049 3051 3051 3052 3053 3054 3053 3051 3051 3052 3052 3052 3053 3054 3055 3055 3055 3055 3056 3055 3055 3055 3054 3053 3053 3054 3055 3054 3055 3057 3055 3052 3054 3058 3059 3060 3060 3059 3059 3058 3057 3056 3055 3054 3054 3053 3052 3051
3001 3002 3004 3005 3005 3007 3008 3008 3011 3012 3013 3013 3013 3014 3017 3018 3021 3023 3024 3025 3026 3027 3028 3029 3031 3033 3034 3033 3032 3031 3033 3037 3038 3039 3041 3042 3042 3043 3043 3044 3045 3046 3046 3047 3048 3048 3048 3048 3048 3049 3048 3047 3049 3051 3051 3051 3052 3051 3048 3046 3048 3049 3048 3047 3048 3050 3051 3050 3051 3052 3049 3047 3051 3055 3054 3054 3054 3053 3052 3052 3052 3051 3050 3049 3049 3048 3047 3046
2996 2998 3000 3001 3001 3002 3003 3004 3005 3006 3006 3007 3009 3011 3013 3015 3018 3019 3019 3020 3022 3023 3024 3025 3027 3028 3028 3027 3027 3028 3031 3033 3034 3035 3037 3037 3037 3038 3039 3039 3040 3040 3041 3043 3043 3043 3043 3043 3044 3046 3044 3043 3045 3047 3046 3048 3048 3043 3037 3038 3042 3044 3043 3043 3044 3045 3045 3045 3045 3045 3043 3044 3048 3049 3048 3048 3049 3048 3047 3047 3047 3046 3046 3045 3044 3044 3042 3041